TimeMDT,TemperatureF,Dew PointF,Humidity,Sea Level PressureIn,VisibilityMPH,Wind Direction,Wind SpeedMPH,Gust SpeedMPH,PrecipitationIn,Events,Conditions,WindDirDegrees,DateUTC
12:15 AM,55.8,11.3,17,30.13,10.0,NW,13.8,-,N/A,,Clear,310,2012-10-26 06:15:00
12:35 AM,56.1,12.4,18,30.13,10.0,NNE,4.6,-,N/A,,Clear,30,2012-10-26 06:35:00
1:15 AM,51.4,12.2,21,30.14,10.0,North,8.1,-,N/A,,Clear,360,2012-10-26 07:15:00
1:35 AM,50.5,12.4,22,30.15,10.0,NNE,9.2,-,N/A,,Clear,20,2012-10-26 07:35:00
1:55 AM,50.7,12.0,21,30.15,10.0,North,10.4,-,N/A,,Clear,360,2012-10-26 07:55:00
2:15 AM,49.8,11.8,22,30.16,10.0,North,8.1,-,N/A,,Clear,10,2012-10-26 08:15:00
2:35 AM,47.5,13.1,25,30.17,10.0,North,11.5,-,N/A,,Clear,360,2012-10-26 08:35:00
2:55 AM,47.8,12.6,24,30.18,10.0,North,6.9,-,N/A,,Clear,350,2012-10-26 08:55:00
3:15 AM,45.5,13.8,28,30.18,10.0,NNW,9.2,-,N/A,,Clear,330,2012-10-26 09:15:00
3:35 AM,45.9,16.3,31,30.18,10.0,NNW,9.2,-,N/A,,Clear,330,2012-10-26 09:35:00
3:55 AM,44.4,18.3,35,30.19,10.0,NNW,10.4,-,N/A,,Clear,340,2012-10-26 09:55:00
4:15 AM,44.8,19.8,37,30.20,10.0,North,12.7,-,N/A,,Clear,360,2012-10-26 10:15:00
4:35 AM,43.2,16.2,34,30.21,10.0,North,11.5,-,N/A,,Clear,350,2012-10-26 10:35:00
4:55 AM,42.6,17.8,37,30.21,10.0,North,10.4,-,N/A,,Clear,360,2012-10-26 10:55:00
5:15 AM,41.0,19.8,43,30.22,10.0,NNW,9.2,-,N/A,,Clear,340,2012-10-26 11:15:00
5:35 AM,41.0,20.1,43,30.23,10.0,North,12.7,-,N/A,,Clear,360,2012-10-26 11:35:00
5:55 AM,39.6,20.1,46,30.24,10.0,NNW,5.8,-,N/A,,Clear,340,2012-10-26 11:55:00
6:15 AM,38.3,19.4,47,30.25,10.0,North,9.2,-,N/A,,Clear,360,2012-10-26 12:15:00
6:35 AM,39.7,19.2,44,30.26,10.0,North,10.4,-,N/A,,Clear,350,2012-10-26 12:35:00
6:55 AM,37.6,21.0,51,30.28,10.0,North,10.4,-,N/A,,Clear,360,2012-10-26 12:55:00
7:15 AM,37.4,22.5,55,30.28,10.0,North,9.2,-,N/A,,Clear,10,2012-10-26 13:15:00
7:35 AM,37.4,22.8,56,30.28,10.0,North,9.2,-,N/A,,Clear,360,2012-10-26 13:35:00
7:55 AM,38.5,22.8,53,30.30,10.0,North,9.2,-,N/A,,Clear,10,2012-10-26 13:55:00
8:15 AM,39.4,23.0,52,30.30,10.0,North,9.2,-,N/A,,Clear,360,2012-10-26 14:15:00
8:55 AM,43.0,23.5,46,30.33,10.0,North,10.4,16.1,N/A,,Clear,350,2012-10-26 14:55:00
9:15 AM,43.7,24.1,46,30.33,10.0,North,10.4,-,N/A,,Clear,360,2012-10-26 15:15:00
9:35 AM,45.5,21.7,39,30.33,10.0,North,15.0,-,N/A,,Clear,360,2012-10-26 15:35:00
9:55 AM,46.4,19.9,35,30.34,10.0,North,15.0,21.9,N/A,,Clear,10,2012-10-26 15:55:00
10:15 AM,46.9,19.4,34,30.33,10.0,North,12.7,23.0,N/A,,Clear,360,2012-10-26 16:15:00
10:35 AM,48.6,19.0,31,30.34,10.0,North,10.4,18.4,N/A,,Clear,10,2012-10-26 16:35:00
10:55 AM,50.0,19.4,30,30.34,10.0,North,11.5,17.3,N/A,,Clear,360,2012-10-26 16:55:00
11:15 AM,50.7,18.5,28,30.33,10.0,North,15.0,18.4,N/A,,Clear,360,2012-10-26 17:15:00
11:35 AM,51.6,18.0,27,30.33,10.0,North,12.7,20.7,N/A,,Clear,360,2012-10-26 17:35:00
11:55 AM,52.2,17.8,26,30.33,10.0,North,15.0,19.6,N/A,,Clear,360,2012-10-26 17:55:00
12:15 PM,53.2,18.1,25,30.32,10.0,NNW,13.8,18.4,N/A,,Clear,340,2012-10-26 18:15:00
12:35 PM,54.5,16.7,23,30.32,10.0,North,11.5,19.6,N/A,,Clear,350,2012-10-26 18:35:00
12:55 PM,55.2,16.3,22,30.30,10.0,North,10.4,18.4,N/A,,Clear,10,2012-10-26 18:55:00
1:15 PM,55.8,16.0,21,30.30,10.0,North,13.8,17.3,N/A,,Clear,360,2012-10-26 19:15:00
2:15 PM,58.5,13.8,17,30.27,10.0,North,11.5,17.3,N/A,,Clear,350,2012-10-26 20:15:00
2:35 PM,58.5,13.5,17,30.26,10.0,North,9.2,-,N/A,,Clear,360,2012-10-26 20:35:00
2:55 PM,58.6,13.5,17,30.25,10.0,North,9.2,17.3,N/A,,Clear,350,2012-10-26 20:55:00
3:15 PM,58.8,13.8,17,30.24,10.0,NNE,6.9,-,N/A,,Clear,20,2012-10-26 21:15:00
3:35 PM,58.6,14.0,17,30.23,10.0,NNW,8.1,-,N/A,,Clear,340,2012-10-26 21:35:00
3:55 PM,59.4,16.9,19,30.23,10.0,North,9.2,-,N/A,,Clear,350,2012-10-26 21:55:00
4:15 PM,59.7,17.2,19,30.22,10.0,NNW,8.1,-,N/A,,Clear,330,2012-10-26 22:15:00
4:35 PM,59.5,18.0,20,30.22,10.0,North,6.9,-,N/A,,Clear,10,2012-10-26 22:35:00
4:55 PM,59.0,19.0,21,30.22,10.0,North,9.2,-,N/A,,Clear,350,2012-10-26 22:55:00
5:35 PM,58.1,17.8,21,30.21,10.0,North,9.2,-,N/A,,Clear,350,2012-10-26 23:35:00
5:55 PM,56.7,17.2,21,30.22,10.0,NNW,8.1,-,N/A,,Clear,340,2012-10-26 23:55:00
6:15 PM,54.7,14.9,21,30.22,10.0,NNW,8.1,-,N/A,,Clear,330,2012-10-27 00:15:00
6:35 PM,52.9,14.0,21,30.22,10.0,NNW,4.6,-,N/A,,Clear,340,2012-10-27 00:35:00
6:55 PM,51.4,13.6,22,30.23,10.0,Calm,Calm,-,N/A,,Clear,0,2012-10-27 00:55:00
7:15 PM,51.8,13.8,22,30.24,10.0,NE,3.5,-,N/A,,Clear,40,2012-10-27 01:15:00
7:35 PM,50.5,21.6,32,30.25,10.0,East,5.8,-,N/A,,Clear,100,2012-10-27 01:35:00
7:55 PM,50.0,22.6,34,30.26,10.0,East,9.2,18.4,N/A,,Clear,100,2012-10-27 01:55:00
8:15 PM,48.9,22.5,35,30.26,10.0,ESE,3.5,-,N/A,,Clear,110,2012-10-27 02:15:00
8:35 PM,47.8,22.6,37,30.26,10.0,ENE,4.6,-,N/A,,Clear,60,2012-10-27 02:35:00
8:55 PM,47.3,23.2,39,30.27,10.0,ENE,4.6,-,N/A,,Clear,70,2012-10-27 02:55:00
9:15 PM,46.9,23.5,40,30.27,10.0,ENE,5.8,-,N/A,,Clear,70,2012-10-27 03:15:00
9:35 PM,47.1,23.5,40,30.27,10.0,Calm,Calm,-,N/A,,Clear,0,2012-10-27 03:35:00
9:55 PM,45.7,23.5,42,30.27,10.0,Calm,Calm,-,N/A,,Clear,0,2012-10-27 03:55:00
10:15 PM,40.1,21.4,47,30.27,10.0,Calm,Calm,-,N/A,,Clear,0,2012-10-27 04:15:00
10:35 PM,43.7,23.9,46,30.27,10.0,ENE,3.5,-,N/A,,Clear,70,2012-10-27 04:35:00
10:55 PM,43.7,23.7,45,30.27,10.0,Calm,Calm,-,N/A,,Clear,0,2012-10-27 04:55:00
11:15 PM,37.0,19.6,49,30.27,10.0,Calm,Calm,-,N/A,,Clear,0,2012-10-27 05:15:00
11:35 PM,36.7,21.2,54,30.27,10.0,Calm,Calm,-,N/A,,Clear,0,2012-10-27 05:35:00
11:55 PM,36.7,21.4,54,30.26,10.0,WSW,3.5,-,N/A,,Clear,240,2012-10-27 05:55:00